Location: Freistadt
(48.5112°N, 14.5013°E)
Time: 13:53:44
(UTC+01:00)

COSMOS 2251 DEB - Visible Passes

Search period start: 08 December 2023 00:00
Search period end: 18 December 2023 00:00
Orbit: 630 x 667 km, 74.0° (Epoch: 07 December)

Date Brightness Start Highest point End Pass type
(mag) Time Alt. Az. Time Alt. Az. Time Alt. Az.
08 Dec ? 06:57:53 10° N 07:01:59 32° ENE 07:06:03 10° ESE visible
09 Dec ? 05:46:48 10° NNE 05:48:31 12° NE 05:50:13 10° ENE visible
10 Dec ? 06:12:16 10° N 06:15:49 22° NE 06:19:19 10° ESE visible
11 Dec ? 06:38:31 10° NNW 06:42:51 42° ENE 06:47:08 10° SE visible
12 Dec ? 05:26:48 10° NNE 05:29:27 15° NE 05:32:06 10° E visible
12 Dec ? 07:05:04 10° NNW 07:09:37 88° WSW 07:14:08 10° SSE visible
13 Dec ? 05:52:38 10° N 05:56:34 28° NE 06:00:28 10° ESE visible
14 Dec ? 04:42:02 10° NNE 04:42:53 10° NE 04:43:45 10° NE visible
14 Dec ? 06:18:56 10° NNW 06:23:25 58° ENE 06:27:52 10° SE visible
15 Dec ? 05:07:02 11° N 05:10:06 19° NE 05:13:22 10° E visible
15 Dec ? 06:45:32 10° NNW 06:50:01 63° WSW 06:54:28 10° S visible
16 Dec ? 05:33:32 14° N 05:37:02 37° ENE 05:41:13 10° SE visible
17 Dec ? 04:22:17 12° NNE 04:23:26 13° NE 04:25:39 10° ENE visible
17 Dec ? 06:00:03 16° NNW 06:03:42 80° ENE 06:08:13 10° SSE visible
